Buffalo, SD

12:57 AM MDT on September 22, 2017 (GMT -0600)
Buffalo

Weather History for K2WX - October, 2013

Change the Weather History Date:

Wednesday, October 2, 2013

  Actual Average Record
Temperature  
Mean Temperature 54 °F 51 °F  
Max Temperature 64 °F 64 °F 94 °F (2011)
Min Temperature 44 °F 37 °F 21 °F (1999)
Degree Days  
Heating Degree Days 11 15  
Month to date heating degree days 24 29  
Since 1 July heating degree days 153 320  
Cooling Degree Days 0 0  
Month to date cooling degree days 0 0  
Year to date cooling degree days 587 512  
Growing Degree Days 4 (Base 50)    
Moisture  
Dew Point 32 °F    
Average Humidity 49    
Maximum Humidity 65    
Minimum Humidity 32    
Precipitation  
Precipitation 0.01 in 0.00 in 0.97 in (2015)
Month to date precipitation 0.01 0.01  
Year to date precipitation 11.66 13.23  
Sea Level Pressure  
Sea Level Pressure 29.92 in    
Wind  
Wind Speed 14 mph (North)    
Max Wind Speed 30 mph    
Max Gust Speed 37 mph    
T = Trace of Precipitation, MM = Missing Value Source: NWS Daily Summary

Daily Weather History Graph

Daily Weather History Graph

Search for Another Location

Airport or City:

Trip Planner

Search our weather history database for the weather conditions in past years. The results will help you decide how hot, cold, wet, or windy it might be!

Date:

Astronomy

Oct. 02, 2013 Rise Set
Actual Time 6:53 AM MDT 6:31 PM MDT
Civil Twilight 6:24 AM MDT 7:01 PM MDT
Nautical Twilight 5:49 AM MDT 7:35 PM MDT
Astronomical Twilight 5:15 AM MDT 8:10 PM MDT
Moon 4:23 AM MDT (10/2) 5:13 PM MDT (10/2)
Length of Visible Light 12h 36m
Length of Day
11h 37m
Waning Crescent, 6% of the Moon is Illuminated
Oct 2
Waning Crescent
Oct 4
New
Oct 11
First Quarter
Oct 18
Full
Oct 26
Last Quarter

Hourly Weather History & Observations

Time (MDT) Temp. Windchill Dew Point Humidity Pressure Visibility Wind Dir Wind Speed Gust Speed Precip Events Conditions
12:56 AM 45.0 °F 38.2 °F 33.1 °F 63% 29.80 in - NNE 15.0 mph - N/A   Unknown
1:56 AM 46.9 °F - 33.1 °F 59% 29.80 in - NE 12.7 mph - N/A   Unknown
2:56 AM 48.0 °F - 33.1 °F 56% 29.79 in - NNE 15.0 mph - N/A   Unknown
3:56 AM 48.9 °F - 32.0 °F 52% 29.80 in - North 11.5 mph - N/A   Unknown
4:56 AM 50.0 °F - 30.9 °F 48% 29.81 in - NNE 11.5 mph - N/A   Unknown
5:56 AM 45.0 °F 38.9 °F 32.0 °F 60% 29.85 in - NNW 12.7 mph - N/A   Unknown
6:56 AM 45.0 °F 36.6 °F 30.9 °F 58% 29.89 in - NNW 21.9 mph 28.8 mph N/A   Unknown
7:56 AM 45.0 °F 36.9 °F 30.0 °F 56% 29.94 in - NNW 20.7 mph - N/A   Unknown
8:56 AM 50.0 °F - 30.9 °F 48% 29.96 in - NNW 25.3 mph 32.2 mph N/A   Unknown
9:56 AM 55.0 °F - 34.0 °F 45% 29.97 in - NNW 27.6 mph 33.4 mph N/A   Unknown
10:56 AM 57.9 °F - 33.1 °F 39% 29.98 in - NNW 21.9 mph - N/A   Unknown
11:56 AM 59.0 °F - 32.0 °F 36% 29.98 in - NNW 18.4 mph - N/A   Unknown
12:56 PM 61.0 °F - 32.0 °F 34% 29.97 in - North 17.3 mph 21.9 mph N/A   Unknown
1:56 PM 63.0 °F - 32.0 °F 31% 29.95 in - NW 12.7 mph 24.2 mph N/A   Unknown
2:56 PM 62.1 °F - 35.1 °F 37% 29.94 in - North 12.7 mph 24.2 mph N/A   Unknown
3:56 PM 61.0 °F - 30.9 °F 32% 29.94 in - NNW 13.8 mph - N/A   Unknown
4:56 PM 60.1 °F - 30.0 °F 32% 29.94 in - North 12.7 mph - N/A   Unknown
5:56 PM 55.9 °F - 30.0 °F 37% 29.97 in - NNW 9.2 mph - N/A   Unknown
6:56 PM 53.1 °F - 30.9 °F 43% 29.98 in - North 10.4 mph - N/A   Unknown
7:56 PM 52.0 °F - 32.0 °F 47% 29.98 in - North 8.1 mph - N/A   Unknown
8:56 PM 52.0 °F - 30.0 °F 43% 29.95 in - NNE 10.4 mph - N/A   Unknown
9:56 PM 50.0 °F - 30.0 °F 46% 29.95 in - NNE 9.2 mph - N/A   Unknown
10:56 PM 48.9 °F - 32.0 °F 52% 29.93 in - NE 9.2 mph - N/A   Unknown
11:56 PM 48.9 °F - 33.1 °F 54% 29.94 in - North 6.9 mph - N/A   Unknown